DW8500 Weather Reports


time (UTC)temp
F
wind
direction
speed
knots
gust
knots
rain 1hr
in
rain 24hr
in
rain mn
in
humidity
%
barometer
mb
20260507161656 60 288 2.6 9.6 0.00 0.18 0.00 28 1007.6
20260507161152 60 65 2.6 9.6 0.00 0.18 0.00 25 1007.7
20260507160653 60 7 1.7 7.0 0.00 0.18 0.00 26 1007.6
20260507160214 59 116 2.6 7.0 0.00 0.18 0.00 29 1007.8
20260507160127 59 266 1.7 7.0 0.00 0.18 0.00 30 1007.7
20260507155714 59 36 2.6 9.6 0.00 0.18 0.00 26 1007.7
20260507155225 59 37 2.6 9.6 0.00 0.18 0.00 29 1007.7
20260507154702 58 229 2.6 6.1 0.00 0.18 0.00 32 1007.8
20260507154221 58 231 1.7 10.4 0.00 0.18 0.00 28 1007.8
20260507153722 57 276 2.6 10.4 0.00 0.18 0.00 30 1007.9
20260507153159 57 280 4.3 15.6 0.00 0.18 0.00 32 1008.0
20260507152659 57 248 5.2 15.6 0.00 0.18 0.00 29 1008.1
20260507152159 57 311 2.6 6.1 0.00 0.18 0.00 33 1008.2
20260507151700 57 115 2.6 11.3 0.00 0.18 0.00 34 1008.0
20260507151158 57 110 4.3 11.3 0.00 0.18 0.00 34 1008.1
20260507150659 57 275 1.7 7.8 0.00 0.18 0.00 40 1008.2
20260507150214 57 337 1.7 6.1 0.00 0.18 0.00 38 1008.2
20260507150132 57 305 1.7 6.1 0.00 0.18 0.00 40 1008.1
20260507145712 56 252 2.6 8.7 0.00 0.18 0.00 36 1008.3
20260507145208 57 251 3.5 8.7 0.00 0.18 0.00 37 1008.2
20260507144725 56 315 1.7 6.1 0.00 0.18 0.00 39 1008.2
20260507144201 56 319 2.6 8.7 0.00 0.18 0.00 38 1008.2
20260507143703 55 265 3.5 8.7 0.00 0.18 0.00 39 1008.1
20260507143200 55 297 3.5 8.7 0.00 0.18 0.00 46 1008.2
20260507142701 55 342 3.5 10.4 0.00 0.18 0.00 45 1008.1
20260507142200 55 274 4.3 10.4 0.00 0.18 0.00 44 1008.0
20260507141701 56 207 2.6 9.6 0.00 0.18 0.00 44 1008.0
20260507141200 56 25 3.5 9.6 0.00 0.18 0.00 44 1008.0
20260507140653 56 268 3.5 7.0 0.00 0.18 0.00 44 1007.9
20260507140152 55 269 0.9 5.2 0.00 0.18 0.00 45 1008.1
20260507135653 55 291 1.7 5.2 0.00 0.18 0.00 45 1008.1
20260507135211 54 239 0.9 7.8 0.00 0.18 0.00 48 1008.0
20260507134713 54 290 2.6 7.8 0.00 0.18 0.00 46 1008.0
20260507134626 53 307 1.7 7.8 0.00 0.18 0.00 46 1007.9
20260507134229 54 311 0.9 6.1 0.00 0.18 0.00 46 1008.0
20260507133727 54 326 1.7 7.8 0.00 0.18 0.00 47 1008.0
20260507133206 54 275 2.6 7.8 0.00 0.18 0.00 49 1008.0
20260507133117 54 300 1.7 7.0 0.00 0.18 0.00 49 1008.0
20260507132704 53 295 1.7 8.7 0.00 0.18 0.00 48 1008.1
20260507132158 53 290 3.5 8.7 0.00 0.18 0.00 49 1008.2
20260507131718 53 284 1.7 6.1 0.00 0.18 0.00 49 1008.2
20260507131214 53 312 1.7 6.1 0.00 0.18 0.00 48 1008.2
20260507130650 53 296 1.7 4.3 0.00 0.18 0.00 48 1008.3
20260507130212 53 220 0.9 3.5 0.00 0.18 0.00 48 1008.3
20260507130125 52 247 0.9 3.5 0.00 0.18 0.00 48 1008.2
20260507125712 52 267 0.0 3.5 0.00 0.18 0.00 49 1008.3
20260507125210 52 34 0.9 3.5 0.00 0.18 0.00 50 1008.2
20260507124709 52 280 0.9 3.5 0.00 0.18 0.00 52 1008.3
20260507124624 51 243 0.9 3.5 0.00 0.18 0.00 52 1008.2
20260507124206 51 320 0.9 3.5 0.00 0.18 0.00 50 1008.3
20260507123705 51 293 0.0 3.5 0.00 0.18 0.00 52 1008.2
20260507123203 51 6 0.9 6.1 0.00 0.18 0.00 53 1008.2
20260507122719 51 205 1.7 6.1 0.00 0.18 0.00 52 1008.3
20260507122217 50 160 1.7 6.1 0.00 0.18 0.00 53 1008.3
20260507121157 50 316 0.9 6.1 0.00 0.18 0.00 54 1008.3
20260507120658 50 126 1.7 7.0 0.00 0.18 0.00 55 1008.3
20260507120256 50 281 0.0 3.5 0.00 0.18 0.00 55 1008.4
20260507120124 49 358 0.0 3.5 0.00 0.18 0.00 55 1008.4
20260507115711 49 51 0.0 8.7 0.00 0.18 0.00 56 1008.5
20260507115207 49 258 2.6 8.7 0.00 0.18 0.00 55 1008.5
20260507114721 49 307 0.9 4.3 0.00 0.18 0.00 57 1008.5
20260507114158 48 3 1.7 5.2 0.00 0.18 0.00 57 1008.4
20260507113701 48 39 0.9 5.2 0.00 0.18 0.00 57 1008.4
20260507113209 48 300 0.9 2.6 0.00 0.18 0.00 59 1008.4
20260507113121 47 258 0.9 2.6 0.00 0.18 0.00 59 1008.2
20260507112707 47 323 0.0 1.7 0.00 0.18 0.00 59 1008.2
20260507112224 47 285 0.0 4.3 0.00 0.18 0.00 59 1008.3
20260507111703 47 276 1.7 4.3 0.00 0.18 0.00 59 1008.3
20260507111202 47 259 0.9 4.3 0.00 0.18 0.00 59 1008.3
20260507110702 46 213 0.0 3.5 0.00 0.18 0.00 60 1008.3
20260507110216 46 258 0.9 3.5 0.00 0.18 0.00 60 1008.2
20260507110134 46 267 0.9 3.5 0.00 0.18 0.00 60 1008.1
20260507105734 46 219 0.9 3.5 0.00 0.18 0.00 61 1008.2
20260507105211 46 285 0.9 3.5 0.00 0.18 0.00 60 1008.0
20260507104710 46 319 0.9 2.6 0.00 0.18 0.00 60 1008.0
20260507104622 46 300 0.0 2.6 0.00 0.18 0.00 60 1007.8
20260507104206 46 237 0.0 1.7 0.00 0.18 0.00 60 1007.9
20260507103725 46 193 0.0 2.6 0.00 0.18 0.00 61 1007.8
20260507103203 46 323 0.9 2.6 0.00 0.18 0.00 61 1007.7
20260507102703 46 253 0.9 1.7 0.00 0.18 0.00 61 1007.8
20260507102201 46 271 0.0 2.6 0.00 0.18 0.00 61 1007.8
20260507101702 46 290 0.9 2.6 0.00 0.18 0.00 61 1007.9
20260507101152 46 286 0.0 1.7 0.00 0.18 0.00 61 1007.8
20260507100657 46 250 0.0 1.7 0.00 0.18 0.00 61 1007.8
20260507100152 46 250 0.0 1.7 0.00 0.18 0.00 61 1007.9
20260507095652 46 281 0.0 0.0 0.00 0.18 0.00 61 1007.8
20260507095254 46 319 0.0 0.9 0.00 0.18 0.00 60 1007.6
20260507094725 46 316 0.0 1.7 0.00 0.18 0.00 60 1007.8
20260507094204 46 324 0.0 1.7 0.00 0.18 0.00 60 1008.1
20260507093704 47 314 0.0 1.7 0.00 0.18 0.00 60 1008.1
20260507093204 47 303 0.9 2.6 0.00 0.18 0.00 60 1008.0
20260507092719 47 243 0.9 4.3 0.00 0.18 0.00 60 1007.9
20260507092151 47 266 0.9 7.0 0.00 0.18 0.00 59 1007.9
20260507091652 47 273 1.7 7.0 0.00 0.18 0.00 59 1007.9
20260507091233 47 321 0.0 3.5 0.00 0.18 0.00 60 1008.0
20260507090649 47 108 1.7 3.5 0.00 0.18 0.00 60 1008.1
20260507090212 46 246 0.9 3.5 0.00 0.18 0.00 60 1007.9
20260507090125 46 244 0.0 3.5 0.00 0.18 0.00 60 1007.9
20260507085708 47 267 0.9 2.6 0.00 0.18 0.00 60 1008.2
20260507085224 46 315 0.9 1.7 0.00 0.18 0.00 61 1008.2
20260507084704 46 288 0.0 2.6 0.00 0.18 0.00 61 1008.4
20260507084157 47 221 0.0 2.6 0.00 0.18 0.00 61 1008.3
20260507083657 47 278 0.0 5.2 0.00 0.18 0.00 60 1007.9
20260507083235 47 312 0.0 5.2 0.00 0.18 0.00 61 1007.7
20260507083126 46 257 0.0 5.2 0.00 0.18 0.00 61 1007.6
20260507082649 47 259 0.9 2.6 0.00 0.18 0.00 60 1007.9
20260507082209 47 269 0.9 2.6 0.00 0.18 0.00 61 1007.9
20260507081651 47 11 0.0 1.7 0.00 0.18 0.00 61 1007.8
20260507081211 47 266 0.0 2.6 0.00 0.18 0.00 61 1007.9
20260507080711 47 257 0.9 2.6 0.00 0.18 0.00 61 1007.6
20260507080207 47 110 0.0 1.7 0.00 0.18 0.00 61 1007.6
20260507080120 46 340 0.0 1.7 0.00 0.18 0.00 61 1007.4
20260507075706 47 264 0.0 1.7 0.00 0.18 0.00 62 1007.5
20260507075220 47 319 0.0 0.0 0.00 0.18 0.00 61 1007.4
20260507074658 48 319 0.0 0.9 0.00 0.18 0.00 61 1007.7
20260507074151 48 319 0.0 0.9 0.00 0.18 0.00 60 1007.7
20260507073656 48 257 0.0 2.6 0.00 0.18 0.00 60 1007.9
20260507073211 48 255 0.0 2.6 0.00 0.18 0.00 60 1007.9
20260507072657 48 262 0.0 3.5 0.00 0.18 0.00 59 1007.5
20260507072152 48 285 1.7 5.2 0.00 0.18 0.00 59 1007.7
20260507071151 48 268 0.9 3.5 0.00 0.18 0.00 59 1007.1
20260507070652 49 297 0.9 2.6 0.00 0.18 0.00 59 1007.1
20260507070214 49 283 0.9 2.6 0.00 0.18 0.00 59 1007.0
20260507070131 48 275 0.0 2.6 0.00 0.18 0.00 59 1006.9
20260507065709 49 288 0.9 5.2 0.00 0.18 0.00 59 1007.2
20260507065206 49 267 0.0 5.2 0.00 0.18 0.00 59 1006.9
20260507064703 49 297 0.9 4.3 0.00 0.18 0.00 60 1007.1
20260507064620 48 19 0.9 4.3 0.00 0.18 0.00 60 1007.0
20260507064159 49 276 0.9 4.3 0.00 0.18 0.00 60 1007.1
20260507063700 49 278 0.9 2.6 0.00 0.18 0.00 60 1007.0
20260507063201 49 253 1.7 3.5 0.00 0.18 0.00 60 1006.8
20260507062700 49 286 0.9 4.3 0.00 0.18 0.00 60 1007.1
20260507062159 50 207 1.7 4.3 0.00 0.18 0.00 60 1007.2
20260507061701 50 276 0.0 4.3 0.00 0.18 0.00 60 1006.8
20260507061158 50 293 1.7 4.3 0.00 0.18 0.00 60 1006.7
20260507060700 50 306 0.9 4.3 0.00 0.18 0.00 60 1006.9
20260507060152 50 358 0.9 4.3 0.00 0.18 0.00 61 1007.0
20260507055651 50 320 0.9 3.5 0.00 0.18 0.00 61 1007.0
20260507055211 50 283 0.0 1.7 0.00 0.18 0.00 61 1007.1
20260507054709 50 318 0.0 1.7 0.00 0.18 0.00 60 1007.1
20260507054627 49 318 0.0 1.7 0.00 0.18 0.00 60 1007.0
20260507054227 50 255 0.0 3.5 0.00 0.18 0.00 60 1007.4
20260507053726 50 277 0.9 5.2 0.00 0.18 0.00 60 1007.6
20260507053224 50 266 1.7 5.2 0.00 0.18 0.00 60 1007.4
20260507052702 50 326 0.0 3.5 0.00 0.18 0.00 60 1007.5
20260507052159 50 210 0.9 6.1 0.00 0.18 0.00 60 1007.5
20260507051712 50 270 2.6 6.1 0.00 0.18 0.00 60 1007.5
20260507051211 50 317 0.9 4.3 0.00 0.18 0.00 60 1007.7
20260507050708 50 259 2.6 4.3 0.00 0.18 0.00 60 1007.6
20260507050204 50 233 0.0 0.9 0.00 0.18 0.00 61 1007.6
20260507050117 50 233 0.0 0.0 0.00 0.00 0.00 61 1007.2
20260507045703 50 130 0.0 0.9 0.00 0.18 0.00 61 1007.4
20260507045202 50 151 0.0 0.9 0.00 0.18 0.00 60 1007.6
20260507044703 50 214 0.0 3.5 0.00 0.18 0.00 60 1007.3
20260507044202 50 314 0.9 3.5 0.00 0.18 0.00 60 1007.2
20260507043703 51 107 0.0 4.3 0.00 0.18 0.00 60 1007.0
20260507043201 51 239 1.7 4.3 0.00 0.18 0.00 60 1007.0
20260507042722 51 234 0.9 4.3 0.00 0.18 0.00 60 1007.4
20260507042156 51 317 0.0 2.6 0.00 0.18 0.00 60 1007.4
20260507041712 51 274 0.9 2.6 0.00 0.18 0.00 60 1007.4
20260507041210 52 266 0.0 0.9 0.00 0.18 0.00 60 1007.6
20260507040732 52 200 0.0 1.7 0.00 0.18 0.00 60 1007.5
20260507040228 52 206 0.9 1.7 0.00 0.18 0.00 60 1007.5
20260507040117 51 254 0.0 1.7 0.00 0.18 0.18 60 1007.2
20260507035725 52 216 0.0 3.5 0.00 0.18 0.18 59 1007.3
20260507035221 52 230 0.0 5.2 0.00 0.18 0.18 60 1007.3
20260507034653 53 248 0.9 5.2 0.01 0.18 0.18 59 1007.0
20260507034152 53 59 0.9 3.5 0.01 0.18 0.18 59 1007.0
20260507033652 53 248 0.9 2.6 0.02 0.18 0.18 60 1006.9
20260507033212 54 359 0.0 3.5 0.02 0.18 0.18 60 1006.9
20260507032711 54 132 0.9 3.5 0.02 0.18 0.18 60 1006.7
20260507032209 54 260 0.0 4.3 0.02 0.18 0.18 60 1006.7
20260507031709 54 302 1.7 4.3 0.02 0.18 0.18 60 1006.7
20260507031621 53 297 0.9 4.3 0.02 0.18 0.18 60 1006.3
20260507031205 54 335 0.0 2.6 0.02 0.18 0.18 60 1006.5
20260507030704 54 285 0.9 2.6 0.02 0.18 0.18 60 1006.6
20260507030200 54 278 0.0 4.3 0.02 0.18 0.18 61 1006.4
20260507025659 55 266 0.9 4.3 0.02 0.18 0.18 61 1006.4
20260507025153 55 300 0.9 7.0 0.02 0.18 0.18 60 1006.3
20260507024653 55 236 1.7 7.0 0.01 0.17 0.17 60 1006.5
20260507024149 56 41 2.6 7.8 0.01 0.17 0.17 59 1006.6
20260507023712 56 214 2.6 7.8 0.00 0.16 0.16 59 1006.7
20260507023230 57 296 1.7 6.1 0.00 0.16 0.16 59 1006.8
20260507023124 57 323 0.9 7.8 0.00 0.16 0.16 59 1006.5
20260507022709 58 299 1.7 7.8 0.00 0.16 0.16 59 1006.6
20260507022205 58 19 2.6 7.8 0.00 0.16 0.16 61 1006.5
20260507021704 58 281 0.9 3.5 0.00 0.16 0.16 63 1006.3
20260507021200 59 218 0.9 3.5 0.00 0.16 0.16 63 1006.0
20260507020651 59 7 0.9 3.5 0.00 0.16 0.16 64 1005.9
20260507020150 59 265 0.9 2.6 0.00 0.16 0.16 64 1005.9
20260507015650 59 233 0.9 2.6 0.00 0.16 0.16 64 1006.0
20260507015148 59 230 0.0 4.3 0.00 0.16 0.16 64 1005.9
20260507014712 59 262 0.0 4.3 0.00 0.16 0.16 64 1006.0
20260507014626 58 262 0.0 4.3 0.00 0.16 0.16 64 1005.7
20260507014228 58 269 0.0 1.7 0.00 0.16 0.16 64 1005.9
20260507013705 58 51 0.0 1.7 0.00 0.16 0.16 64 1005.7
20260507013222 58 145 0.0 0.9 0.00 0.16 0.16 64 1005.8
20260507012702 58 145 0.0 0.9 0.00 0.16 0.16 64 1005.7
20260507012159 58 144 0.0 0.0 0.00 0.16 0.16 64 1005.7
20260507011654 58 144 0.0 0.0 0.00 0.16 0.16 64 1005.7
20260507011151 58 145 0.0 0.9 0.00 0.16 0.16 64 1005.7
20260507010651 58 144 0.0 0.9 0.00 0.16 0.16 64 1005.8
20260507010149 58 144 0.0 1.7 0.00 0.16 0.16 64 1005.7
20260507005650 58 86 0.0 1.7 0.00 0.16 0.16 64 1005.7
20260507005212 58 178 0.0 1.7 0.00 0.16 0.16 64 1005.7
20260507004708 58 188 0.0 1.7 0.00 0.16 0.16 64 1005.6
20260507004622 58 188 0.0 1.7 0.00 0.16 0.16 64 1005.2
20260507004204 58 272 0.0 4.3 0.00 0.16 0.16 64 1005.6
20260507003704 58 304 0.0 4.3 0.00 0.16 0.16 64 1005.5
20260507003201 58 104 0.0 0.9 0.00 0.16 0.16 64 1005.4
20260507002713 58 133 0.0 3.5 0.00 0.16 0.16 64 1005.2
20260507002151 58 126 0.0 3.5 0.00 0.16 0.16 64 1005.1
20260507001713 58 116 0.0 1.7 0.00 0.16 0.16 64 1005.1
20260507001210 58 118 0.0 1.7 0.00 0.16 0.16 64 1005.2
20260507000752 58 141 0.0 1.7 0.00 0.16 0.16 64 1005.4
20260507000205 58 299 0.0 2.6 0.00 0.16 0.16 64 1005.3
20260507000118 58 299 0.0 2.6 0.00 0.16 0.16 63 1004.9
20260506235704 58 84 0.9 2.6 0.00 0.16 0.16 64 1005.3
20260506235219 58 113 0.0 4.3 0.00 0.16 0.16 63 1005.2
20260506234654 59 240 0.9 4.3 0.01 0.16 0.16 63 1005.3
20260506234152 59 137 0.0 2.6 0.01 0.16 0.16 63 1005.2
20260506233653 59 243 0.0 2.6 0.01 0.16 0.16 63 1005.2
20260506233152 59 252 0.9 2.6 0.01 0.16 0.16 63 1005.1
20260506232652 59 239 0.0 1.7 0.01 0.16 0.16 63 1005.2
20260506232149 59 137 0.0 2.6 0.01 0.16 0.16 63 1005.0
20260506231649 59 135 0.0 2.6 0.01 0.16 0.16 63 1004.8
20260506231209 59 231 0.0 3.5 0.01 0.16 0.16 63 1004.9
20260506230708 59 131 0.0 5.2 0.01 0.16 0.16 63 1004.9
20260506230225 59 25 0.0 5.2 0.01 0.16 0.16 63 1004.9
20260506230117 58 162 0.0 5.2 0.01 0.16 0.16 63 1004.7
20260506225659 59 110 0.0 3.5 0.01 0.16 0.16 63 1005.0
20260506225214 59 27 0.0 0.9 0.01 0.16 0.16 63 1005.2
20260506224654 59 117 0.0 0.9 0.00 0.15 0.15 63 1005.2
20260506224150 59 115 0.0 3.5 0.00 0.15 0.15 63 1005.2
20260506223651 59 134 0.9 3.5 0.00 0.15 0.15 63 1005.3
20260506223211 59 262 0.0 3.5 0.00 0.15 0.15 63 1005.2
20260506223128 58 262 0.0 3.5 0.00 0.15 0.15 63 1004.8
20260506222647 59 155 0.0 3.5 0.00 0.15 0.15 63 1005.2
20260506222209 59 114 0.0 1.7 0.00 0.15 0.15 62 1005.2
20260506221709 59 193 0.0 2.6 0.00 0.15 0.15 62 1005.3
20260506221624 58 214 0.0 2.6 0.00 0.15 0.15 62 1004.8
20260506221206 59 120 0.9 3.5 0.01 0.15 0.15 62 1005.3
20260506220705 59 303 0.9 4.3 0.01 0.15 0.15 62 1005.4
20260506215711 59 101 0.0 2.6 0.02 0.15 0.15 62 1005.3
20260506215227 59 86 0.9 3.5 0.02 0.15 0.15 62 1005.4
20260506214719 59 259 0.9 6.1 0.02 0.15 0.15 62 1005.4
20260506214153 59 127 0.9 6.1 0.02 0.15 0.15 62 1005.4
20260506213658 59 175 0.9 5.2 0.03 0.15 0.15 62 1005.4
20260506213158 59 127 0.9 1.7 0.03 0.15 0.15 62 1005.5
20260506212659 59 112 0.9 1.7 0.04 0.15 0.15 62 1005.5
20260506212213 59 243 0.0 3.5 0.05 0.15 0.15 61 1005.5
20260506211733 60 179 0.9 3.5 0.05 0.15 0.15 61 1005.5
20260506211628 59 236 0.0 3.5 0.06 0.15 0.15 61 1005.0
20260506211230 60 252 0.9 2.6 0.05 0.14 0.14 61 1005.6
20260506210707 60 96 0.9 5.2 0.05 0.14 0.14 61 1005.6
20260506210243 60 129 0.9 5.2 0.05 0.14 0.14 61 1005.6
20260506205658 60 153 0.9 4.3 0.04 0.13 0.13 60 1005.6
20260506205157 60 177 0.9 7.0 0.05 0.13 0.13 60 1005.7
20260506204654 60 120 0.9 3.5 0.05 0.13 0.13 60 1005.7
20260506203653 61 224 0.9 4.3 0.05 0.12 0.12 59 1005.8
20260506203147 61 251 0.9 1.7 0.05 0.12 0.12 59 1005.8
20260506202712 61 231 0.9 2.6 0.04 0.11 0.11 58 1005.8
20260506202208 61 306 0.9 2.6 0.03 0.10 0.10 57 1005.9
20260506201706 61 124 0.9 2.6 0.02 0.09 0.10 57 1005.9
20260506201620 61 122 0.9 2.6 0.02 0.09 0.09 57 1005.4
20260506201205 61 288 0.9 2.6 0.02 0.09 0.09 56 1005.9
20260506200725 61 125 0.0 2.6 0.02 0.09 0.09 56 1005.9
20260506200202 61 144 0.0 3.5 0.02 0.09 0.09 55 1006.0
20260506195723 61 105 0.9 3.5 0.02 0.09 0.09 55 1006.0
20260506195200 61 101 0.0 3.5 0.02 0.08 0.08 55 1006.1
20260506194702 61 140 0.9 3.5 0.02 0.08 0.08 55 1006.2
20260506194153 61 92 0.0 3.5 0.01 0.07 0.07 55 1006.2
20260506193658 61 128 0.9 3.5 0.01 0.07 0.07 55 1006.3
20260506193157 61 217 1.7 5.2 0.01 0.07 0.07 55 1006.4
20260506192657 61 231 0.9 5.2 0.01 0.07 0.07 55 1006.4
20260506192213 61 144 0.0 6.1 0.02 0.07 0.07 55 1006.3
20260506191713 62 255 0.9 6.1 0.02 0.07 0.07 55 1006.1
20260506191150 62 231 0.9 3.5 0.03 0.07 0.07 56 1006.1
20260506190653 62 117 0.0 0.9 0.03 0.07 0.07 56 1006.0
20260506190152 61 117 0.0 1.7 0.04 0.07 0.07 56 1005.9
20260506185652 61 25 0.9 2.6 0.04 0.07 0.07 56 1006.0
20260506185149 62 118 0.9 4.3 0.04 0.06 0.06 56 1006.3
20260506184707 62 98 0.9 4.3 0.05 0.06 0.06 56 1006.4
20260506184627 61 76 0.0 2.6 0.05 0.06 0.06 56 1005.9
20260506184203 61 142 0.0 2.6 0.06 0.06 0.06 57 1006.5
20260506183702 62 115 0.0 0.9 0.06 0.06 0.06 57 1006.5
20260506183221 62 67 0.0 2.6 0.06 0.06 0.06 58 1006.5
20260506182701 62 40 0.9 2.6 0.06 0.06 0.06 59 1006.7
20260506182159 62 150 0.0 3.5 0.05 0.05 0.05 63 1006.9
20260506181659 62 147 0.9 4.3 0.05 0.05 0.05 63 1006.9
20260506181151 62 164 0.0 4.3 0.04 0.04 0.04 64 1007.0
20260506180650 62 339 0.9 4.3 0.04 0.04 0.04 64 1007.2
20260506180210 63 238 0.9 4.3 0.03 0.03 0.03 64 1007.3
20260506180122 62 238 0.0 4.3 0.03 0.03 0.03 64 1006.8
20260506175704 63 314 0.9 4.3 0.02 0.02 0.02 64 1007.2
20260506175200 64 154 0.9 5.2 0.02 0.02 0.02 63 1007.4
20260506174659 65 303 0.9 9.6 0.01 0.01 0.01 60 1007.6
20260506174153 65 262 2.6 8.7 0.00 0.00 0.00 58 1007.6
20260506173657 66 153 4.3 8.7 0.00 0.00 0.00 55 1007.6
20260506173150 67 65 1.7 8.7 0.00 0.00 0.00 53 1007.4
20260506172651 68 98 2.6 7.8 0.00 0.00 0.00 52 1007.4
20260506172212 68 241 2.6 9.6 0.00 0.00 0.00 50 1007.2
20260506171729 69 191 3.5 9.6 0.00 0.00 0.00 49 1007.2
20260506171620 68 279 1.7 7.8 0.00 0.00 0.00 49 1006.6
20260506171201 69 110 2.6 10.4 0.00 0.00 0.00 48 1007.1
20260506170702 69 27 3.5 13.9 0.00 0.00 0.00 48 1007.1
20260506170152 69 272 2.6 13.9 0.00 0.00 0.00 48 1007.2
20260506165652 70 233 3.5 13.9 0.00 0.00 0.00 47 1007.3
20260506165213 70 94 2.6 11.3 0.00 0.00 0.00 47 1007.2
20260506164648 70 311 3.5 9.6 0.00 0.00 0.00 47 1007.4
20260506164147 70 185 2.6 9.6 0.00 0.00 0.00 47 1007.4
20260506163649 70 139 3.5 12.2 0.00 0.00 0.00 47 1007.4
20260506163231 70 268 4.3 12.2 0.00 0.00 0.00 46 1007.4
20260506163125 70 222 5.2 12.2 0.00 0.00 0.00 46 1006.9
20260506162646 70 138 0.9 3.5 0.00 0.00 0.00 47 1007.5